Weather History for KMVE - May, 2013

Change the Weather History Date:

Wednesday, May 8, 2013

  Actual Average Record
Temperature  
Mean Temperature 60 °F -  
Max Temperature 64 °F 69 °F 89 °F (1985)
Min Temperature 55 °F 42 °F 28 °F (1980)
Degree Days  
Heating Degree Days 6    
Growing Degree Days 10 (Base 50)    
Moisture  
Dew Point 54 °F    
Average Humidity 86    
Maximum Humidity 100    
Minimum Humidity 52    
Precipitation  
Precipitation 0.35 in - - ()
Sea Level Pressure  
Sea Level Pressure 30.00 in    
Wind  
Wind Speed 5 mph (SE)    
Max Wind Speed 12 mph    
Max Gust Speed -    
Visibility 9 miles    
Events Rain    
Averages and records for this station are not official NWS values.
T = Trace of Precipitation, MM = Missing Value Source: NWS Daily Summary

Daily Weather History Graph

Daily Weather History Graph

Search for Another Location

Airport or City:

Trip Planner

Search our weather history database for the weather conditions in past years. The results will help you decide how hot, cold, wet, or windy it might be!

Date:

Astronomy

May. 08, 2013 Rise Set
Actual Time 6:02 AM CDT 8:37 PM CDT
Civil Twilight 5:28 AM CDT 9:10 PM CDT
Nautical Twilight 4:47 AM CDT 9:52 PM CDT
Astronomical Twilight 3:59 AM CDT 10:40 PM CDT
Moon 5:14 AM CDT (5/8) 7:34 PM CDT (5/8)
Length of Visible Light 15h 41m
Length of Day
14h 35m
Waning Crescent, 2% of the Moon is Illuminated
May 8
Waning Crescent
May 9
New
May 17
First Quarter
May 24
Full
May 31
Last Quarter

Hourly Weather History & Observations

Time (CDT) Temp. Dew Point Humidity Pressure Visibility Wind Dir Wind Speed Gust Speed Precip Events Conditions
12:14 AM 64.4 °F 46.4 °F 52% 29.98 in 10.0 mi West 5.8 mph - N/A   Scattered Clouds
12:34 AM 64.4 °F 46.4 °F 52% 29.98 in 10.0 mi West 8.1 mph - N/A   Overcast
12:53 AM 62.6 °F 48.2 °F 59% 29.98 in 10.0 mi WSW 5.8 mph - N/A   Overcast
1:14 AM 62.6 °F 46.4 °F 55% 29.97 in 10.0 mi WSW 6.9 mph - N/A   Overcast
1:34 AM 62.6 °F 48.2 °F 59% 29.97 in 10.0 mi WSW 5.8 mph - N/A   Overcast
1:53 AM 64.4 °F 46.4 °F 52% 29.97 in 10.0 mi SSW 4.6 mph - N/A   Overcast
2:14 AM 62.6 °F 48.2 °F 59% 29.97 in 10.0 mi WSW 5.8 mph - N/A   Overcast
2:34 AM 62.6 °F 48.2 °F 59% 29.97 in 10.0 mi SW 3.5 mph - N/A   Overcast
2:53 AM 60.8 °F 48.2 °F 63% 29.97 in 10.0 mi SW 4.6 mph - N/A   Overcast
3:14 AM 60.8 °F 48.2 °F 63% 29.97 in 10.0 mi SW 4.6 mph - N/A   Overcast
3:34 AM 60.8 °F 48.2 °F 63% 29.97 in 10.0 mi SW 4.6 mph - N/A   Light Drizzle
3:53 AM 60.8 °F 48.2 °F 63% 29.96 in 10.0 mi Calm Calm - N/A   Overcast
4:14 AM 60.8 °F 50.0 °F 68% 29.97 in 10.0 mi SW 5.8 mph - N/A Rain Light Rain
4:34 AM 59.0 °F 51.8 °F 77% 29.97 in 10.0 mi WSW 6.9 mph - 0.01 in Rain Rain
4:54 AM 57.2 °F 53.6 °F 88% 29.97 in 10.0 mi West 4.6 mph - 0.04 in Rain Light Rain
5:14 AM 57.2 °F 53.6 °F 88% 29.97 in 10.0 mi WNW 4.6 mph - 0.01 in Rain Rain
5:34 AM 57.2 °F 53.6 °F 88% 29.97 in 10.0 mi North 3.5 mph - 0.01 in   Overcast
5:54 AM 55.4 °F 53.6 °F 94% 29.97 in 10.0 mi Calm Calm - 0.01 in   Overcast
6:14 AM 55.4 °F 53.6 °F 94% 29.98 in 10.0 mi Calm Calm - N/A   Overcast
6:34 AM 55.4 °F 53.6 °F 94% 29.98 in 10.0 mi Calm Calm - N/A   Overcast
6:54 AM 55.4 °F 55.4 °F 100% 29.98 in 10.0 mi Calm Calm - N/A   Overcast
7:14 AM 55.4 °F 55.4 °F 100% 29.99 in 10.0 mi Calm Calm - N/A   Overcast
7:34 AM 55.4 °F 55.4 °F 100% 29.99 in 10.0 mi Calm Calm - N/A   Overcast
7:54 AM 55.4 °F 55.4 °F 100% 29.99 in 10.0 mi SE 3.5 mph - N/A   Overcast
8:14 AM 55.4 °F 55.4 °F 100% 30.00 in 10.0 mi SSE 5.8 mph - N/A Rain Light Rain
8:34 AM 57.2 °F 55.4 °F 94% 30.00 in 10.0 mi Calm Calm - 0.01 in   Drizzle
8:54 AM 57.2 °F 55.4 °F 94% 30.01 in 10.0 mi SSE 5.8 mph - 0.01 in   Overcast
9:14 AM 57.2 °F 55.4 °F 94% 30.01 in 10.0 mi SSW 3.5 mph - N/A   Mostly Cloudy
9:34 AM 59.0 °F 55.4 °F 88% 30.02 in 10.0 mi SSW 4.6 mph - N/A   Mostly Cloudy
9:54 AM 59.0 °F 53.6 °F 82% 30.01 in 10.0 mi Calm Calm - N/A Rain Light Rain
10:14 AM 59.0 °F 55.4 °F 88% 30.01 in 10.0 mi SSW 4.6 mph - N/A Rain Light Rain
10:34 AM 59.0 °F 55.4 °F 88% 30.01 in 10.0 mi South 3.5 mph - N/A   Light Drizzle
10:54 AM 59.0 °F 55.4 °F 88% 30.02 in 10.0 mi South 4.6 mph - N/A   Overcast
11:13 AM 59.0 °F 55.4 °F 88% 30.02 in 7.0 mi South 4.6 mph - N/A Rain Light Rain
11:34 AM 59.0 °F 57.2 °F 94% 30.01 in 10.0 mi ESE 4.6 mph - 0.03 in Rain Light Rain
11:54 AM 59.0 °F 55.4 °F 88% 30.01 in 10.0 mi ESE 8.1 mph - 0.04 in Rain Rain
12:13 PM 59.0 °F 55.4 °F 88% 30.02 in 7.0 mi SE 6.9 mph - 0.01 in Rain Light Rain
12:34 PM 59.0 °F 55.4 °F 88% 30.02 in 10.0 mi ESE 4.6 mph - 0.03 in Rain Light Rain
12:54 PM 59.0 °F 55.4 °F 88% 30.02 in 10.0 mi ESE 6.9 mph - 0.05 in Rain Light Rain
1:14 PM 59.0 °F 55.4 °F 88% 30.01 in 10.0 mi ESE 4.6 mph - 0.02 in Rain Rain
1:34 PM 59.0 °F 55.4 °F 88% 30.01 in 7.0 mi East 5.8 mph - 0.04 in Rain Light Rain
1:54 PM 59.0 °F 55.4 °F 88% 30.01 in 10.0 mi ESE 5.8 mph - 0.04 in   Light Drizzle
2:14 PM 59.0 °F 57.2 °F 94% 30.02 in 10.0 mi ESE 4.6 mph - N/A   Overcast
2:34 PM 59.0 °F 55.4 °F 88% 30.02 in 10.0 mi ESE 5.8 mph - N/A   Overcast
2:54 PM 59.0 °F 55.4 °F 88% 30.02 in 7.0 mi SSE 6.9 mph - N/A   Overcast
3:14 PM 57.2 °F 57.2 °F 100% 30.02 in 4.0 mi SE 3.5 mph - N/A Rain Rain
3:34 PM 57.2 °F 57.2 °F 100% 30.02 in 7.0 mi ESE 5.8 mph - 0.01 in   Light Drizzle
3:54 PM 57.2 °F 57.2 °F 100% 30.01 in 7.0 mi SE 4.6 mph - 0.01 in   Drizzle
4:14 PM 59.0 °F 57.2 °F 94% 30.01 in 10.0 mi ESE 8.1 mph - 0.01 in Rain Light Rain
4:34 PM 59.0 °F 57.2 °F 94% 30.01 in 10.0 mi East 9.2 mph - 0.01 in   Light Drizzle
4:54 PM 59.0 °F 57.2 °F 94% 30.00 in 10.0 mi East 10.4 mph - 0.01 in   Drizzle
5:14 PM 59.0 °F 57.2 °F 94% 30.00 in 10.0 mi East 10.4 mph - N/A   Mostly Cloudy
5:34 PM 60.8 °F 57.2 °F 88% 30.00 in 7.0 mi East 10.4 mph - N/A Rain Rain
5:54 PM 60.8 °F 57.2 °F 88% 29.99 in 10.0 mi East 11.5 mph - N/A   Mostly Cloudy
6:14 PM 60.8 °F 57.2 °F 88% 29.99 in 10.0 mi East 10.4 mph - N/A   Overcast
6:34 PM 60.8 °F 57.2 °F 88% 29.99 in 10.0 mi East 10.4 mph - N/A   Overcast
6:54 PM 60.8 °F 59.0 °F 94% 29.99 in 10.0 mi East 9.2 mph - N/A   Overcast
7:14 PM 60.8 °F 57.2 °F 88% 29.99 in 10.0 mi East 10.4 mph - N/A   Mostly Cloudy
7:34 PM 60.8 °F 59.0 °F 94% 29.99 in 7.0 mi East 8.1 mph - N/A   Overcast
7:54 PM 60.8 °F 57.2 °F 88% 30.00 in 10.0 mi East 8.1 mph - N/A   Overcast
8:14 PM 60.8 °F 57.2 °F 88% 30.00 in 10.0 mi East 6.9 mph - N/A   Overcast
8:34 PM 59.0 °F 57.2 °F 94% 30.00 in 10.0 mi East 6.9 mph - N/A   Overcast
8:54 PM 59.0 °F 57.2 °F 94% 30.01 in 10.0 mi East 4.6 mph - N/A Rain Rain
9:14 PM 57.2 °F 57.2 °F 100% 30.01 in 10.0 mi East 4.6 mph - N/A   Overcast
9:34 PM 57.2 °F 55.4 °F 94% 30.02 in 10.0 mi East 4.6 mph - N/A   Overcast
9:54 PM 57.2 °F 55.4 °F 94% 30.03 in 7.0 mi ESE 6.9 mph - N/A   Drizzle
10:14 PM 57.2 °F 55.4 °F 94% 30.03 in 7.0 mi ESE 6.9 mph - 0.01 in   Heavy Drizzle
10:34 PM 57.2 °F 55.4 °F 94% 30.04 in 10.0 mi ESE 6.9 mph - 0.06 in Rain Rain
10:53 PM 55.4 °F 55.4 °F 100% 30.03 in 10.0 mi East 4.6 mph - 0.11 in Rain Light Rain
11:14 PM 55.4 °F 55.4 °F 100% 30.03 in 7.0 mi NE 6.9 mph - 0.02 in Rain Rain
11:34 PM 55.4 °F 55.4 °F 100% 30.03 in 5.0 mi NE 8.1 mph - 0.03 in   Drizzle
11:54 PM 55.4 °F 55.4 °F 100% 30.03 in 7.0 mi ENE 4.6 mph - 0.03 in   Light Drizzle